Вернуться в каталог

STARLINK-5638

АктивенСвязьVLEO
NORAD 55426·PAYLOAD·🇺🇸 United States

Запущен Jan 31, 2023 с Vandenberg Space Force Base

Loading…

Ближайшие Пролёты (ближайшие 24 часа)

TLE

СвежийSource: CelesTrak SupGP

Эпоха: Sep 14, 2026, 13:48 UTC

1 55426C 23014AM  26257.57548611  .00538250  00000+0  44665-1 0  2576
2 55426  70.0010 328.3459 0003065 273.1683  30.6966 14.98440626    15

Отслеживайте STARLINK-5638 в реальном времени с AllMySat

Download on the App Store